[[{"header":{"parameterUnit":"m.s-1","parameterCategory":1,"la1":30.2991,"la2":30.254,"lo1":-89.0895,"lo2":-89.0444,"dy":0.0017,"dx":0.0017,"nx":28,"ny":28,"refTime":"2024-05-25T09:00:00:Z","depth":0,"parameterNumber":2,"parameterNumberName":"U-component_of_WINDS"},"data":[0,0,0,0,0,0,0,0,0,0,0,0,0,0,0,0,0,0,0,0,0,0,0,0,0,0,0,0,0,0,0,0,0,0,0,0,0,0,0,0,0,0,0,0,0,0,0,0,0,0,0,0,0,0,0,0,0,0,0.986,0.9861,0,0.988,0.988,0.988,0.9896,0.9896,0.9896,0.9896,0.9916,0.9916,0.9916,0,0,0,0,0,0,0,0,0,0,0,0,0,0.9838,0.9838,0.986,0.9861,0.9861,0.988,0.988,0.988,0.9896,0.9896,0.9896,0.9896,0.9916,0.9916,0.9916,0,0,0,0,0,0,0,0,0,0,0,0,0,0.9851,0.9838,0.986,0.9871,0.9872,0.988,0.988,0.988,0.9896,0.9896,0.9896,0.9897,0.9915,0.9916,0.9916,0.9915,0,0,0.9918,0.9918,0,0,0,0,0,0,0,0,0.9851,0.9852,0.9869,0.987,0.9871,0.9886,0.9879,0.9892,0.9896,0.9887,0.9896,0.9897,0.9905,0.9907,0.991,0.9916,0.9917,0.9918,0.9918,0.9919,0.9919,0,0,0,0,0,0,0,0.985,0.9851,0.9868,0.9869,0.9871,0.9875,0.9877,0.9882,0.9894,0.9888,0.9889,0.9891,0.9906,0.9909,0.991,0.9917,0.9918,0.9919,0.9919,0.9919,0.9924,0.9924,0,0,0,0,0,0,0.9847,0.9851,0.9867,0.9869,0.9861,0.9875,0.9878,0.9881,0.9894,0.9897,0.9891,0.9892,0.9908,0.991,0.9911,0.9911,0.9919,0.9919,0.992,0.9924,0.9924,0.9924,0,0,0,0,0,0,0.9847,0.9848,0.9867,0.986,0.9863,0.9875,0.9879,0.9881,0.9884,0.9897,0.9899,0.9891,0.9909,0.991,0.9914,0.9912,0.9919,0.992,0.9925,0.9924,0.9924,0.991,0,0,0,0,0,0,0.9846,0.9848,0.9847,0.986,0.9863,0.9869,0.9879,0.9881,0.9885,0.9887,0.9898,0.99,0.9909,0.9913,0.9915,0.9913,0.992,0.9925,0.9925,0.9924,0.9911,0.991,0.9909,0,0,0,0,0,0.9845,0.9842,0.9847,0.9849,0.9862,0.9869,0.987,0.988,0.9885,0.9884,0.9893,0.99,0.9912,0.9914,0.9915,0.9914,0.9925,0.9925,0.9924,0.9912,0.991,0.9909,0,0,0,0,0,0,0.9828,0.9844,0.985,0.9851,0.9858,0.9871,0.9871,0.9878,0.9884,0.9885,0.9897,0.99,0.9903,0.9909,0.991,0.9914,0.992,0.992,0.991,0.9908,0.9907,0.9905,0.9921,0,0,0,0,0,0.9825,0.9829,0.9842,0.9842,0.9846,0.9858,0.9861,0.9868,0.9876,0.988,0.9888,0.9896,0.9902,0.9905,0.9911,0.9912,0.9916,0.9912,0.9911,0.991,0.9909,0.9912,0.9911,0.9923,0.9923,0.9923,0,0,0.9817,0.9826,0.9828,0.9839,0.9846,0.985,0.986,0.9864,0.9867,0.988,0.9885,0.9891,0.9901,0.9904,0.9906,0.9909,0.9907,0.9909,0.9908,0.9909,0.9911,0.991,0.9909,0.9922,0.9922,0.9922,0,0,0.9806,0.9813,0.9814,0.9821,0.9832,0.984,0.9841,0.9853,0.9858,0.9863,0.9873,0.9878,0.9887,0.9894,0.9899,0.9893,0.99,0.9894,0.9887,0.989,0.9889,0.9888,0.9887,0.9886,0.9894,0.9894,0.9894,0,0.9795,0.9802,0.9814,0.9818,0.9823,0.9835,0.9837,0.9843,0.9855,0.9858,0.9862,0.9875,0.9883,0.9888,0.9887,0.989,0.9891,0.9893,0.9888,0.9887,0.9887,0.9886,0.9885,0.9893,0.9894,0.9894,0.9894,0,0.9789,0.9794,0.9794,0.9806,0.9811,0.9813,0.9826,0.983,0.9837,0.9845,0.9851,0.9861,0.9869,0.9871,0.9878,0.9878,0.988,0.9886,0.9892,0.9885,0.9884,0.9883,0.9892,0.9893,0.9893,0.9893,0,0,0.9767,0.9786,0.9786,0.9792,0.9806,0.981,0.9814,0.9823,0.9826,0.9835,0.9839,0.9847,0.9853,0.9859,0.9867,0.9869,0.9865,0.9875,0.9875,0.9873,0.9867,0.9862,0.9861,0.987,0.987,0.987,0.9866,0,0.9758,0.9765,0.9777,0.9781,0.9786,0.9799,0.9803,0.9812,0.982,0.9826,0.9836,0.9842,0.9849,0.9852,0.9855,0.9865,0.9864,0.9865,0.9874,0.9874,0.9871,0.9861,0.9856,0.9852,0.9866,0.9866,0.9866,0,0.9748,0.9757,0.9761,0.9776,0.9779,0.9782,0.9792,0.9797,0.9808,0.9814,0.9822,0.9831,0.9836,0.9842,0.9851,0.9852,0.9856,0.9862,0.9862,0.9863,0.9869,0.9862,0.985,0.985,0.9865,0.9865,0.9865,0,0.9732,0.9744,0.9749,0.9754,0.9771,0.9773,0.9781,0.9792,0.9797,0.9806,0.981,0.982,0.9825,0.9833,0.9844,0.9848,0.9852,0.9859,0.9858,0.9857,0.9857,0.9857,0.9847,0.986,0.986,0.986,0.986,0,0.9721,0.9723,0.9742,0.9745,0.9749,0.9763,0.9766,0.9775,0.9785,0.979,0.9803,0.9807,0.9823,0.983,0.9839,0.9846,0.9848,0.9853,0.9856,0.9852,0.9851,0.9855,0.9856,0.986,0.986,0.986,0.986,0,0.9703,0.9716,0.9722,0.9738,0.9743,0.9745,0.9759,0.9763,0.9772,0.9779,0.9782,0.9797,0.9806,0.9819,0.9831,0.9838,0.9843,0.9847,0.9839,0.984,0.9839,0.9839,0.983,0.983,0.9844,0.9843,0.9843,0,0.9695,0.9697,0.9714,0.9719,0.9726,0.9733,0.9739,0.9754,0.9759,0.9773,0.9776,0.9786,0.9794,0.9808,0.9821,0.9831,0.9835,0.9832,0.9837,0.9834,0.9836,0.9836,0.9836,0.983,0.983,0.983,0.983,0,0.9679,0.9686,0.9694,0.9705,0.9712,0.9721,0.9731,0.9734,0.9751,0.9757,0.9766,0.9773,0.9787,0.9797,0.9809,0.9818,0.9827,0.9828,0.9829,0.9825,0.982,0.9823,0.9836,0.9828,0.9828,0.9828,0.9828,0.9828,0.9666,0.967,0.9683,0.9692,0.9701,0.971,0.9715,0.9726,0.9734,0.9747,0.9755,0.9765,0.9777,0.9795,0.9803,0.9811,0.9815,0.9815,0.9815,0.9815,0.9814,0.9819,0.9813,0.9813,0.9813,0.9813,0.9813,0,0.9652,0.9662,0.967,0.9684,0.9691,0.97,0.9712,0.9717,0.9726,0.9737,0.9746,0.9758,0.9768,0.9782,0.9794,0.9798,0.9802,0.98,0.98,0.9802,0.981,0.9808,0.9797,0.9797,0.9797,0.9797,0.9797,0.9797,0.9645,0.9652,0.9661,0.9672,0.9682,0.9691,0.9698,0.9707,0.9716,0.9729,0.9738,0.9747,0.976,0.9773,0.9783,0.9787,0.9791,0.9788,0.9793,0.98,0.9801,0.9803,0.9802,0.9789,0.9789,0.9785,0.9785,0.9785]},{"header":{"parameterUnit":"m.s-1","parameterCategory":1,"la1":30.2991,"la2":30.254,"lo1":-89.0895,"lo2":-89.0444,"dy":0.0017,"dx":0.0017,"nx":28,"ny":28,"refTime":"2024-05-25T09:00:00:Z","depth":0,"parameterNumber":3,"parameterNumberName":"V-component_of_WINDS"},"data":[0,0,0,0,0,0,0,0,0,0,0,0,0,0,0,0,0,0,0,0,0,0,0,0,0,0,0,0,0,0,0,0,0,0,0,0,0,0,0,0,0,0,0,0,0,0,0,0,0,0,0,0,0,0,0,0,0,0,2.5694,2.5694,0,2.5662,2.5661,2.5661,2.566,2.5661,2.5661,2.5661,2.5622,2.5621,2.562,0,0,0,0,0,0,0,0,0,0,0,0,0,2.5751,2.575,2.5694,2.5694,2.5693,2.5662,2.5661,2.5661,2.566,2.5661,2.5661,2.5662,2.5623,2.5621,2.562,0,0,0,0,0,0,0,0,0,0,0,0,0,2.5723,2.575,2.5694,2.5689,2.5689,2.5662,2.5661,2.5661,2.566,2.5661,2.5661,2.5662,2.5624,2.5621,2.5619,2.5594,0,0,2.5613,2.5612,0,0,0,0,0,0,0,0,2.5725,2.5721,2.569,2.569,2.5689,2.5666,2.5667,2.5638,2.566,2.5671,2.5661,2.5662,2.5636,2.5633,2.5625,2.5592,2.559,2.5613,2.5611,2.561,2.561,0,0,0,0,0,0,0,2.5727,2.5723,2.5681,2.569,2.5689,2.5687,2.5684,2.5662,2.565,2.567,2.567,2.5666,2.5636,2.5627,2.5624,2.5589,2.5613,2.5611,2.5609,2.5609,2.5534,2.5534,0,0,0,0,0,0,2.573,2.5724,2.5682,2.568,2.5709,2.5686,2.5682,2.5672,2.565,2.5648,2.5666,2.5666,2.5631,2.5627,2.5623,2.5592,2.561,2.5608,2.5607,2.5535,2.5534,2.5533,0,0,0,0,0,0,2.5732,2.5727,2.5683,2.5702,2.5697,2.5684,2.5673,2.5671,2.5663,2.5647,2.5645,2.566,2.5631,2.5626,2.5602,2.5591,2.5607,2.5605,2.5536,2.5535,2.5534,2.553,0,0,0,0,0,0,2.5733,2.5727,2.5718,2.5702,2.5696,2.5664,2.5673,2.567,2.566,2.5661,2.5641,2.5638,2.5631,2.5605,2.5599,2.5588,2.5604,2.5537,2.5535,2.5534,2.5531,2.5528,2.5527,0,0,0,0,0,2.5735,2.5717,2.5718,2.5713,2.5684,2.5663,2.5659,2.5653,2.5659,2.565,2.564,2.5639,2.5593,2.5602,2.5596,2.5584,2.5537,2.5536,2.5534,2.5531,2.5529,2.5527,0,0,0,0,0,0,2.5729,2.5714,2.5715,2.5691,2.5679,2.5663,2.5651,2.5651,2.5635,2.5635,2.5627,2.5622,2.5598,2.5589,2.5599,2.5558,2.5566,2.5563,2.5566,2.5563,2.5561,2.5564,2.5602,0,0,0,0,0,2.5726,2.5711,2.5698,2.5678,2.5672,2.5663,2.5653,2.565,2.5636,2.563,2.5618,2.5603,2.5585,2.5574,2.5556,2.553,2.5525,2.5518,2.5516,2.5515,2.5512,2.5498,2.5495,2.5528,2.5528,2.5528,0,0,2.5717,2.5707,2.5698,2.5677,2.5667,2.5651,2.5658,2.5641,2.5629,2.5627,2.5604,2.5595,2.5577,2.5552,2.554,2.5543,2.5502,2.5513,2.5512,2.551,2.5496,2.5493,2.549,2.5527,2.5527,2.5528,0,0,2.5693,2.5684,2.5667,2.5658,2.5644,2.5638,2.5634,2.5618,2.5613,2.559,2.5589,2.5574,2.5543,2.5531,2.5521,2.5495,2.5494,2.549,2.5479,2.5466,2.5463,2.5461,2.5452,2.5448,2.5487,2.5487,2.5487,0,2.5683,2.5661,2.5658,2.5641,2.5632,2.5632,2.5614,2.5605,2.5585,2.5578,2.5582,2.5545,2.5533,2.5506,2.55,2.5491,2.5486,2.5492,2.5464,2.5462,2.5459,2.545,2.5447,2.5487,2.5487,2.5487,2.5487,0,2.565,2.5635,2.5623,2.5606,2.5595,2.5578,2.5571,2.556,2.5559,2.5552,2.5529,2.5515,2.5496,2.5489,2.5486,2.5461,2.5464,2.5466,2.5473,2.5456,2.5447,2.5444,2.5486,2.5487,2.5487,2.5487,0,0,2.562,2.5604,2.5599,2.5592,2.5578,2.5565,2.5548,2.5531,2.5522,2.5508,2.5493,2.5469,2.5472,2.546,2.5456,2.5444,2.5425,2.5448,2.5447,2.5444,2.5397,2.5396,2.5392,2.5425,2.5424,2.5423,2.5399,0,2.5595,2.5566,2.5564,2.5537,2.5523,2.5524,2.5509,2.5498,2.5491,2.5477,2.547,2.5453,2.5458,2.5451,2.5439,2.543,2.5415,2.5432,2.5409,2.5409,2.5414,2.5387,2.5385,2.5362,2.5395,2.5395,2.5395,0,2.5561,2.5549,2.5523,2.5511,2.5505,2.5492,2.5477,2.5464,2.5451,2.5448,2.5436,2.5434,2.5415,2.5424,2.5398,2.5409,2.54,2.5394,2.5393,2.539,2.54,2.5384,2.5355,2.5351,2.5389,2.539,2.539,0,2.5542,2.5519,2.5501,2.5495,2.5481,2.5472,2.5465,2.5453,2.5444,2.543,2.5424,2.5408,2.5399,2.5386,2.5379,2.5386,2.5354,2.5362,2.5349,2.535,2.5342,2.5342,2.5311,2.5336,2.5336,2.5337,2.5337,0,2.5514,2.5497,2.5492,2.5481,2.5462,2.5459,2.5441,2.5434,2.5424,2.5411,2.541,2.5397,2.5389,2.5374,2.5369,2.5349,2.5344,2.534,2.5339,2.534,2.5341,2.5333,2.5335,2.5336,2.5336,2.5336,2.5336,0,2.5489,2.5485,2.5465,2.5455,2.5452,2.5439,2.5429,2.5417,2.5412,2.5395,2.5391,2.5382,2.5365,2.5358,2.5336,2.5333,2.5309,2.5309,2.5314,2.5314,2.5302,2.5303,2.5265,2.526,2.5289,2.5288,2.5288,0,2.5471,2.5459,2.5448,2.544,2.5434,2.5421,2.5412,2.5409,2.5399,2.5385,2.5375,2.5359,2.5346,2.5319,2.531,2.5293,2.5293,2.528,2.529,2.5292,2.5293,2.5293,2.5292,2.5278,2.5278,2.5278,2.5278,0,2.544,2.5439,2.5427,2.5415,2.5406,2.5395,2.5385,2.5378,2.5373,2.5363,2.5347,2.5337,2.5317,2.5301,2.5285,2.5276,2.5276,2.5275,2.5271,2.5272,2.5276,2.5274,2.5309,2.5275,2.5276,2.5276,2.5276,2.5276,2.5417,2.5407,2.5399,2.5386,2.5379,2.537,2.5359,2.5354,2.5341,2.5326,2.5324,2.5308,2.5296,2.5275,2.5266,2.5252,2.5255,2.5249,2.5248,2.5247,2.5246,2.5279,2.5249,2.5249,2.5249,2.5249,2.5249,0,2.5386,2.5381,2.537,2.5357,2.5348,2.5351,2.534,2.5331,2.5317,2.5307,2.5295,2.5278,2.5263,2.5253,2.5238,2.5228,2.5228,2.5224,2.5225,2.5223,2.5244,2.5249,2.5225,2.5225,2.5225,2.5225,2.5225,2.5225,2.5369,2.5352,2.535,2.533,2.5325,2.531,2.5304,2.5296,2.5288,2.5269,2.5258,2.5252,2.5243,2.5227,2.5213,2.5211,2.5205,2.5201,2.5199,2.5219,2.5221,2.5224,2.5228,2.52,2.52,2.5179,2.5178,2.5178]}]]